[[{"header":{"parameterUnit":"m.s-1","parameterCategory":1,"la1":30.2992,"la2":30.254,"lo1":-89.0895,"lo2":-89.0443,"dy":0.0025,"dx":0.0025,"nx":19,"ny":19,"refTime":"2026-03-25T09:00:00:Z","depth":0,"parameterNumber":2,"parameterNumberName":"U-component_of_WINDS"},"data":[0,0,0,-2.542,-2.5422,-2.5506,-2.5506,-2.5619,-2.562,0,0,0,0,0,0,0,0,0,0,0,-2.54,-2.5401,-2.542,-2.5422,-2.5506,-2.5506,-2.5619,-2.562,0,0,0,0,0,0,0,0,0,0,0,-2.5399,-2.54,-2.5401,-2.5423,-2.5505,-2.5506,-2.5619,-2.5553,0,0,0,0,0,0,0,0,0,0,-2.5471,-2.5456,-2.54,-2.5401,-2.5423,-2.5505,-2.5506,-2.555,-2.5557,-2.5584,0,-2.5609,0,-2.5617,-2.5628,-2.5629,0,0,0,-2.5419,-2.545,-2.5469,-2.5402,-2.5424,-2.5505,-2.5467,-2.5554,-2.5562,-2.5594,-2.5611,-2.5615,-2.5619,-2.5629,-2.563,-2.5796,-2.5797,0,0,-2.5414,-2.5417,-2.5463,-2.5475,-2.5462,-2.5464,-2.547,-2.5559,-2.5578,-2.5611,-2.5618,-2.5621,-2.563,-2.5631,-2.5796,-2.5797,0,0,0,-2.5403,-2.5414,-2.543,-2.547,-2.5485,-2.5467,-2.5473,-2.5574,-2.5579,-2.5619,-2.5622,-2.5631,-2.5632,-2.5795,-2.5796,-2.5844,0,0,0,-2.54,-2.5407,-2.5428,-2.5431,-2.5483,-2.553,-2.5486,-2.5573,-2.5583,-2.5621,-2.5631,-2.5633,-2.5794,-2.5795,-2.5841,-2.5866,0,0,0,-2.5393,-2.5406,-2.542,-2.543,-2.5467,-2.5529,-2.5539,-2.5575,-2.5585,-2.5629,-2.5634,-2.5793,-2.5795,-2.5837,-2.5861,-2.5911,0,0,0,-2.5385,-2.5461,-2.5421,-2.5507,-2.5466,-2.5558,-2.5538,-2.5607,-2.5651,-2.5631,-2.5794,-2.5796,-2.5836,-2.5858,-2.5907,-2.5952,-2.5972,0,0,-2.5482,-2.5473,-2.5523,-2.549,-2.559,-2.5545,-2.5653,-2.569,-2.5692,-2.5762,-2.5766,-2.5842,-2.5861,-2.591,-2.608,-2.6095,0,0,0,-2.5555,-2.5591,-2.5617,-2.5659,-2.569,-2.5719,-2.574,-2.5754,-2.5813,-2.5728,-2.5873,-2.5885,-2.5913,-2.5935,-2.5948,-2.5972,-2.5806,-2.5806,-2.5806,-2.5695,-2.5694,-2.5778,-2.5787,-2.5828,-2.585,-2.5883,-2.5906,-2.5892,-2.5927,-2.5947,-2.605,-2.6075,-2.6085,-2.6111,-2.5971,-2.5971,-2.5972,-2.5972,-2.5836,-2.5888,-2.5869,-2.5944,-2.5942,-2.6005,-2.6029,-2.6018,-2.6076,-2.6034,-2.606,-2.6014,-2.6102,-2.6124,-2.5975,-2.5975,-2.5974,-2.5974,-2.5974,-2.5927,-2.5952,-2.5968,-2.6029,-2.6077,-2.6084,-2.6141,-2.6138,-2.6135,-2.616,-2.6182,-2.6181,-2.6179,-2.6171,-2.6171,-2.6172,-2.6172,-2.6172,-2.6172,-2.6015,-2.6032,-2.608,-2.6121,-2.6148,-2.6183,-2.6206,-2.6233,-2.6261,-2.6254,-2.6255,-2.6238,-2.6111,-2.6078,-2.6178,-2.6177,-2.6176,-2.6176,-2.6175,-2.6157,-2.6125,-2.62,-2.6227,-2.6274,-2.6322,-2.6318,-2.6372,-2.6394,-2.6422,-2.6401,-2.6307,-2.6297,-2.6287,-2.626,-2.64,-2.64,-2.6401,-2.6401,-2.6234,-2.6229,-2.6305,-2.6348,-2.6391,-2.6395,-2.648,-2.65,-2.6514,-2.6528,-2.6507,-2.6472,-2.6462,-2.6458,-2.6444,-2.6418,-2.6596,-2.6596,-2.6597,-2.6321,-2.6321,-2.6393,-2.6407,-2.6445,-2.6477,-2.6556,-2.6608,-2.6618,-2.6604,-2.6538,-2.653,-2.6473,-2.6454,-2.6438,-2.6416,-2.637,0,0]},{"header":{"parameterUnit":"m.s-1","parameterCategory":1,"la1":30.2992,"la2":30.254,"lo1":-89.0895,"lo2":-89.0443,"dy":0.0025,"dx":0.0025,"nx":19,"ny":19,"refTime":"2026-03-25T09:00:00:Z","depth":0,"parameterNumber":3,"parameterNumberName":"V-component_of_WINDS"},"data":[0,0,0,2.0111,2.0112,2.0161,2.0161,2.0219,2.022,0,0,0,0,0,0,0,0,0,0,0,2.0095,2.0095,2.0111,2.0112,2.0161,2.0161,2.0219,2.022,0,0,0,0,0,0,0,0,0,0,0,2.0094,2.0095,2.0095,2.0112,2.0161,2.0162,2.0219,2.0183,0,0,0,0,0,0,0,0,0,0,2.0136,2.012,2.0095,2.0095,2.0113,2.0161,2.0162,2.0182,2.0186,2.0195,0,2.0204,0,2.0213,2.0223,2.0224,0,0,0,2.0113,2.0116,2.0132,2.0095,2.0113,2.0161,2.0139,2.0184,2.0188,2.02,2.0205,2.0207,2.0214,2.0224,2.0224,2.028,2.028,0,0,2.011,2.0102,2.0129,2.0134,2.0128,2.0138,2.0141,2.0187,2.0191,2.0205,2.0209,2.0215,2.0224,2.0225,2.028,2.028,0,0,0,2.0102,2.01,2.0114,2.0132,2.0141,2.0139,2.0143,2.0189,2.0194,2.021,2.0216,2.0224,2.0225,2.028,2.028,2.0283,0,0,0,2.01,2.0095,2.0113,2.0108,2.014,2.0166,2.0144,2.0191,2.0197,2.0215,2.0224,2.0226,2.0279,2.028,2.0283,2.0286,0,0,0,2.0092,2.0094,2.0101,2.0108,2.0129,2.0165,2.0174,2.0192,2.02,2.0224,2.0226,2.0279,2.028,2.0282,2.0285,2.0298,0,0,0,2.008,2.0102,2.0101,2.0127,2.0128,2.0168,2.0173,2.0203,2.0223,2.0225,2.0279,2.028,2.0282,2.0284,2.0298,2.0308,2.0311,0,0,2.0102,2.0104,2.012,2.0121,2.0159,2.0161,2.0199,2.0224,2.0233,2.0264,2.0265,2.0283,2.0285,2.0298,2.0336,2.0338,0,0,0,2.0125,2.0136,2.0148,2.0168,2.019,2.0209,2.023,2.024,2.0266,2.0248,2.0292,2.0293,2.0301,2.0306,2.0309,2.0316,2.0282,2.0282,2.0282,2.0143,2.0155,2.0183,2.0202,2.0222,2.0245,2.0261,2.0278,2.0283,2.0294,2.0302,2.0324,2.033,2.0331,2.0339,2.0309,2.0309,2.0309,2.0309,2.0176,2.0195,2.0204,2.0234,2.0247,2.0272,2.0296,2.0299,2.0323,2.0318,2.0326,2.0318,2.0334,2.0341,2.031,2.031,2.0309,2.0309,2.0309,2.0189,2.02,2.0214,2.0245,2.0268,2.0286,2.031,2.0321,2.033,2.0338,2.0348,2.0348,2.0349,2.0343,2.0343,2.0343,2.0343,2.0343,2.0343,2.0197,2.0212,2.0232,2.0258,2.0273,2.0295,2.0319,2.0334,2.0352,2.0358,2.0358,2.0362,2.0334,2.0326,2.0344,2.0344,2.0344,2.0344,2.0344,2.0225,2.0221,2.0252,2.0267,2.03,2.0322,2.0336,2.0365,2.0379,2.039,2.0394,2.0372,2.0373,2.0371,2.0365,2.0391,2.0391,2.0391,2.0391,2.0235,2.0238,2.0273,2.0297,2.0322,2.0338,2.0372,2.0391,2.041,2.042,2.0418,2.041,2.0408,2.0411,2.0408,2.0403,2.0438,2.0438,2.0438,2.0253,2.026,2.0286,2.0307,2.0334,2.0356,2.0389,2.0415,2.0436,2.044,2.0427,2.0425,2.0414,2.0409,2.0412,2.0408,2.0397,0,0]}]]